Time,TemperatureF,DewpointF,PressureIn,WindDirection,WindDirectionDegrees,WindSpeedMPH,WindSpeedGustMPH,Humidity,HourlyPrecipIn,Conditions,Clouds,dailyrainin,SolarRadiationWatts/m^2,SoftwareType,DateUTC
2013-01-18 00:00:00,60.5,54.3,30.05,NW,306,6.0,7.0,80,0.00,,SKC,0.02,0.00,VWS V14.00,2013-01-18 05:00:00,
2013-01-18 00:01:00,60.5,54.3,30.05,NW,314,4.0,7.0,80,0.00,,SKC,0.02,0.00,VWS V14.00,2013-01-18 05:01:00,
2013-01-18 00:02:00,60.5,54.3,30.05,NW,314,1.0,1.0,80,0.00,,SKC,0.00,0.00,VWS V14.00,2013-01-18 05:02:00,
2013-01-18 00:07:00,60.6,53.7,30.05,NNW,338,7.0,11.0,78,0.00,,SKC,0.00,0.00,VWS V14.00,2013-01-18 05:07:00,
2013-01-18 00:12:00,60.7,53.5,30.05,NNW,340,9.0,13.0,77,0.00,,SKC,0.00,0.00,VWS V14.00,2013-01-18 05:12:00,
2013-01-18 00:17:00,60.7,53.5,30.06,NNW,341,3.0,9.0,77,0.00,,SKC,0.00,0.00,VWS V14.00,2013-01-18 05:17:00,
2013-01-18 00:22:00,60.7,53.5,30.06,NNW,342,5.0,11.0,77,0.00,,SKC,0.00,0.00,VWS V14.00,2013-01-18 05:22:00,
2013-01-18 00:27:00,60.7,53.5,30.06,NNW,327,3.0,12.0,77,0.00,,SKC,0.00,0.00,VWS V14.00,2013-01-18 05:27:00,
2013-01-18 00:32:00,60.6,53.4,30.06,NNW,340,4.0,5.0,77,0.00,,SKC,0.00,0.00,VWS V14.00,2013-01-18 05:32:00,
2013-01-18 00:37:00,60.5,53.3,30.06,NNW,331,5.0,7.0,77,0.00,,SKC,0.00,0.00,VWS V14.00,2013-01-18 05:37:00,
2013-01-18 00:42:00,60.3,53.1,30.06,North,349,6.0,11.0,77,0.00,,SKC,0.00,0.00,VWS V14.00,2013-01-18 05:42:00,
2013-01-18 00:47:00,60.1,53.2,30.06,NNW,346,2.0,6.0,78,0.00,,SKC,0.00,0.00,VWS V14.00,2013-01-18 05:47:00,
2013-01-18 00:53:00,59.9,53.0,30.06,NNW,339,6.0,6.0,78,0.00,,SKC,0.00,0.00,VWS V14.00,2013-01-18 05:53:00,
2013-01-18 00:58:00,59.8,52.9,30.06,NNW,344,10.0,10.0,78,0.00,,SKC,0.00,0.00,VWS V14.00,2013-01-18 05:58:00,
2013-01-18 01:03:00,59.7,53.2,30.06,NNW,333,6.0,7.0,79,0.00,,SKC,0.00,0.00,VWS V14.00,2013-01-18 06:03:00,
2013-01-18 01:08:00,59.6,53.1,30.06,NNW,333,2.0,7.0,79,0.00,,SKC,0.00,0.00,VWS V14.00,2013-01-18 06:08:00,
2013-01-18 01:13:00,59.5,53.0,30.06,NNW,336,2.0,9.0,79,0.00,,SKC,0.00,0.00,VWS V14.00,2013-01-18 06:13:00,
2013-01-18 01:18:00,59.4,52.9,30.06,NNW,340,5.0,7.0,79,0.00,,SKC,0.00,0.00,VWS V14.00,2013-01-18 06:18:00,
2013-01-18 01:23:00,59.4,52.9,30.06,NNW,338,6.0,11.0,79,0.00,,SKC,0.00,0.00,VWS V14.00,2013-01-18 06:23:00,
2013-01-18 01:27:00,59.3,52.8,30.06,NNW,336,4.0,5.0,79,0.00,,SKC,0.00,0.00,VWS V14.00,2013-01-18 06:27:00,
2013-01-18 01:32:00,59.3,53.1,30.07,NNW,330,1.0,4.0,80,0.00,,SKC,0.00,0.00,VWS V14.00,2013-01-18 06:32:00,
2013-01-18 01:38:00,59.1,52.9,30.06,NNW,331,5.0,9.0,80,0.00,,SKC,0.00,0.00,VWS V14.00,2013-01-18 06:38:00,
2013-01-18 01:43:00,59.1,52.9,30.06,NNW,336,5.0,9.0,80,0.00,,SKC,0.00,0.00,VWS V14.00,2013-01-18 06:43:00,
2013-01-18 01:48:00,59.0,52.8,30.06,NNW,336,3.0,6.0,80,0.00,,SKC,0.00,0.00,VWS V14.00,2013-01-18 06:48:00,
2013-01-18 01:53:00,58.9,52.8,30.06,NW,324,4.0,8.0,80,0.00,,SKC,0.00,0.00,VWS V14.00,2013-01-18 06:53:00,
2013-01-18 01:58:00,58.8,52.7,30.06,NW,325,4.0,5.0,80,0.00,,SKC,0.00,0.00,VWS V14.00,2013-01-18 06:58:00,
2013-01-18 02:03:00,58.8,52.7,30.06,NNW,342,7.0,11.0,80,0.00,,SKC,0.00,0.00,VWS V14.00,2013-01-18 07:03:00,
2013-01-18 02:08:00,58.6,52.5,30.06,NW,324,5.0,9.0,80,0.00,,SKC,0.00,0.00,VWS V14.00,2013-01-18 07:08:00,
2013-01-18 02:13:00,58.5,52.4,30.06,NNW,333,0.0,5.0,80,0.00,,SKC,0.00,0.00,VWS V14.00,2013-01-18 07:13:00,
2013-01-18 02:18:00,58.5,52.7,30.07,NW,315,6.0,8.0,81,0.00,,SKC,0.00,0.00,VWS V14.00,2013-01-18 07:18:00,
2013-01-18 02:23:00,58.4,52.6,30.07,NW,324,6.0,6.0,81,0.00,,SKC,0.00,0.00,VWS V14.00,2013-01-18 07:23:00,
2013-01-18 02:28:00,58.3,52.5,30.07,NW,325,2.0,3.0,81,0.00,,SKC,0.00,0.00,VWS V14.00,2013-01-18 07:28:00,
2013-01-18 02:33:00,58.2,52.4,30.07,NW,325,0.0,5.0,81,0.00,,SKC,0.00,0.00,VWS V14.00,2013-01-18 07:33:00,
2013-01-18 02:38:00,58.1,52.3,30.07,NNW,329,7.0,7.0,81,0.00,,SKC,0.00,0.00,VWS V14.00,2013-01-18 07:38:00,
2013-01-18 02:43:00,58.0,52.2,30.07,NNW,334,1.0,8.0,81,0.00,,SKC,0.00,0.00,VWS V14.00,2013-01-18 07:43:00,
2013-01-18 02:48:00,58.1,52.3,30.07,NNW,334,0.0,3.0,81,0.00,,SKC,0.00,0.00,VWS V14.00,2013-01-18 07:48:00,
2013-01-18 02:53:00,58.0,52.2,30.07,NNW,334,0.0,5.0,81,0.00,,SKC,0.00,0.00,VWS V14.00,2013-01-18 07:53:00,
2013-01-18 02:58:00,57.8,52.0,30.07,NNW,334,0.0,1.0,81,0.00,,SKC,0.00,0.00,VWS V14.00,2013-01-18 07:58:00,
2013-01-18 03:03:00,57.7,52.2,30.07,NNW,333,3.0,4.0,82,0.00,,SKC,0.00,0.00,VWS V14.00,2013-01-18 08:03:00,
2013-01-18 03:08:00,57.6,52.2,30.07,NNW,335,2.0,6.0,82,0.00,,SKC,0.00,0.00,VWS V14.00,2013-01-18 08:08:00,
2013-01-18 03:13:00,57.5,52.1,30.07,NNW,331,0.0,5.0,82,0.00,,SKC,0.00,0.00,VWS V14.00,2013-01-18 08:13:00,
2013-01-18 03:18:00,57.4,52.0,30.07,NNW,333,2.0,3.0,82,0.00,,SKC,0.00,0.00,VWS V14.00,2013-01-18 08:18:00,
2013-01-18 03:23:00,57.3,51.9,30.07,NW,306,2.0,5.0,82,0.00,,SKC,0.00,0.00,VWS V14.00,2013-01-18 08:23:00,
2013-01-18 03:28:00,57.3,51.9,30.08,NNW,342,0.0,5.0,82,0.00,,SKC,0.00,0.00,VWS V14.00,2013-01-18 08:28:00,
2013-01-18 03:33:00,57.2,51.8,30.08,NNW,340,1.0,4.0,82,0.00,,SKC,0.00,0.00,VWS V14.00,2013-01-18 08:33:00,
2013-01-18 03:38:00,57.1,51.7,30.08,NNW,340,0.0,10.0,82,0.00,,SKC,0.00,0.00,VWS V14.00,2013-01-18 08:38:00,
2013-01-18 03:43:00,57.2,51.8,30.08,NNW,338,0.0,3.0,82,0.00,,SKC,0.00,0.00,VWS V14.00,2013-01-18 08:43:00,
2013-01-18 03:48:00,57.1,51.7,30.08,NW,321,7.0,10.0,82,0.00,,SKC,0.00,0.00,VWS V14.00,2013-01-18 08:48:00,
2013-01-18 03:53:00,57.0,51.6,30.08,NW,322,0.0,2.0,82,0.00,,SKC,0.00,0.00,VWS V14.00,2013-01-18 08:53:00,
2013-01-18 03:58:00,57.0,51.2,30.07,NNW,331,8.0,8.0,81,0.00,,SKC,0.00,0.00,VWS V14.00,2013-01-18 08:58:00,
2013-01-18 04:03:00,56.9,51.1,30.08,NNW,337,4.0,6.0,81,0.00,,SKC,0.00,0.00,VWS V14.00,2013-01-18 09:03:00,
2013-01-18 04:08:00,56.9,51.1,30.08,NNW,346,5.0,9.0,81,0.00,,SKC,0.00,0.00,VWS V14.00,2013-01-18 09:08:00,
2013-01-18 04:13:00,56.8,51.0,30.08,NNW,345,4.0,6.0,81,0.00,,SKC,0.00,0.00,VWS V14.00,2013-01-18 09:13:00,
2013-01-18 04:18:00,56.8,51.0,30.08,NNW,344,0.0,2.0,81,0.00,,SKC,0.00,0.00,VWS V14.00,2013-01-18 09:18:00,
2013-01-18 04:23:00,56.7,51.3,30.08,NNW,347,5.0,9.0,82,0.00,,SKC,0.00,0.00,VWS V14.00,2013-01-18 09:23:00,
2013-01-18 04:28:00,56.8,51.4,30.08,NNW,346,2.0,8.0,82,0.00,,SKC,0.00,0.00,VWS V14.00,2013-01-18 09:28:00,
2013-01-18 04:33:00,56.8,51.4,30.08,NNW,340,3.0,6.0,82,0.00,,SKC,0.00,0.00,VWS V14.00,2013-01-18 09:33:00,
2013-01-18 04:38:00,56.8,51.4,30.08,NNW,341,5.0,5.0,82,0.00,,SKC,0.00,0.00,VWS V14.00,2013-01-18 09:38:00,
2013-01-18 04:43:00,56.9,51.8,30.08,NNW,334,4.0,10.0,83,0.00,,SKC,0.00,0.00,VWS V14.00,2013-01-18 09:43:00,
2013-01-18 04:48:00,56.9,51.5,30.08,NNW,338,5.0,7.0,82,0.00,,SKC,0.00,0.00,VWS V14.00,2013-01-18 09:48:00,
2013-01-18 04:53:00,56.9,51.5,30.08,North,5,6.0,10.0,82,0.00,,SKC,0.00,0.00,VWS V14.00,2013-01-18 09:53:00,
2013-01-18 04:58:00,57.0,51.6,30.08,North,351,7.0,12.0,82,0.00,,SKC,0.00,0.00,VWS V14.00,2013-01-18 09:58:00,
2013-01-18 05:03:00,57.0,51.2,30.09,North,5,4.0,8.0,81,0.00,,SKC,0.00,0.00,VWS V14.00,2013-01-18 10:03:00,
2013-01-18 05:09:00,56.8,50.4,30.09,NNE,12,7.0,16.0,79,0.00,,SKC,0.00,0.00,VWS V14.00,2013-01-18 10:09:00,
2013-01-18 05:14:00,56.8,50.7,30.09,North,351,5.0,11.0,80,0.00,,SKC,0.00,0.00,VWS V14.00,2013-01-18 10:14:00,
2013-01-18 05:19:00,56.7,50.6,30.09,North,355,10.0,11.0,80,0.00,,SKC,0.00,0.00,VWS V14.00,2013-01-18 10:19:00,
2013-01-18 05:24:00,56.7,50.3,30.09,North,5,5.0,7.0,79,0.00,,SKC,0.00,0.00,VWS V14.00,2013-01-18 10:24:00,
2013-01-18 05:29:00,56.6,50.2,30.09,North,5,6.0,9.0,79,0.00,,SKC,0.00,0.00,VWS V14.00,2013-01-18 10:29:00,
2013-01-18 05:34:00,56.5,50.4,30.09,NNW,347,5.0,11.0,80,0.00,,SKC,0.00,0.00,VWS V14.00,2013-01-18 10:34:00,
2013-01-18 05:39:00,56.3,50.2,30.10,North,5,6.0,15.0,80,0.00,,SKC,0.00,0.00,VWS V14.00,2013-01-18 10:39:00,
2013-01-18 05:44:00,56.3,50.2,30.09,North,5,10.0,10.0,80,0.00,,SKC,0.00,0.00,VWS V14.00,2013-01-18 10:44:00,
2013-01-18 05:49:00,56.3,50.5,30.10,North,5,4.0,7.0,81,0.00,,SKC,0.00,0.00,VWS V14.00,2013-01-18 10:49:00,
2013-01-18 05:54:00,56.1,50.4,30.11,NNE,13,7.0,13.0,81,0.00,,SKC,0.00,0.00,VWS V14.00,2013-01-18 10:54:00,
2013-01-18 05:59:00,55.7,49.6,30.11,NE,42,14.0,15.0,80,0.00,,SKC,0.00,0.00,VWS V14.00,2013-01-18 10:59:00,
2013-01-18 06:04:00,55.3,49.2,30.11,NE,42,10.0,10.0,80,0.00,,SKC,0.00,0.00,VWS V14.00,2013-01-18 11:04:00,
2013-01-18 06:09:00,55.1,48.7,30.11,NNE,27,5.0,10.0,79,0.00,,SKC,0.00,0.00,VWS V14.00,2013-01-18 11:09:00,
2013-01-18 06:14:00,55.0,49.0,30.11,NE,40,9.0,9.0,80,0.00,,SKC,0.00,0.00,VWS V14.00,2013-01-18 11:14:00,
2013-01-18 06:19:00,54.8,48.8,30.12,NE,35,10.0,12.0,80,0.00,,SKC,0.00,0.00,VWS V14.00,2013-01-18 11:19:00,
2013-01-18 06:24:00,54.5,48.5,30.12,NNE,28,11.0,11.0,80,0.00,,SKC,0.00,0.00,VWS V14.00,2013-01-18 11:24:00,
2013-01-18 06:29:00,54.5,48.5,30.13,NNE,26,9.0,10.0,80,0.00,,SKC,0.00,0.00,VWS V14.00,2013-01-18 11:29:00,
2013-01-18 06:34:00,54.2,48.2,30.13,NNE,17,6.0,12.0,80,0.00,,SKC,0.00,0.00,VWS V14.00,2013-01-18 11:34:00,
2013-01-18 06:39:00,54.0,47.6,30.14,North,5,9.0,11.0,79,0.00,,SKC,0.00,0.00,VWS V14.00,2013-01-18 11:39:00,
2013-01-18 06:44:00,54.0,48.6,30.14,NNE,24,5.0,9.0,82,0.00,,SKC,0.00,0.00,VWS V14.00,2013-01-18 11:44:00,
2013-01-18 06:49:00,53.9,47.9,30.14,NNE,26,11.0,11.0,80,0.00,,SKC,0.00,0.00,VWS V14.00,2013-01-18 11:49:00,
2013-01-18 06:54:00,53.8,47.8,30.14,NNE,33,5.0,12.0,80,0.00,,SKC,0.00,0.00,VWS V14.00,2013-01-18 11:54:00,
2013-01-18 06:59:00,53.7,48.0,30.14,NNE,19,9.0,15.0,81,0.00,,SKC,0.00,0.00,VWS V14.00,2013-01-18 11:59:00,
2013-01-18 07:04:00,53.5,47.8,30.15,NNE,32,3.0,5.0,81,0.00,,SKC,0.00,0.00,VWS V14.00,2013-01-18 12:04:00,
2013-01-18 07:09:00,53.3,47.6,30.15,NE,46,4.0,6.0,81,0.00,,SKC,0.00,0.00,VWS V14.00,2013-01-18 12:09:00,
2013-01-18 07:14:00,53.3,47.6,30.15,North,5,7.0,16.0,81,0.00,,SKC,0.00,0.00,VWS V14.00,2013-01-18 12:14:00,
2013-01-18 07:19:00,53.1,47.4,30.15,NNE,33,6.0,12.0,81,0.00,,SKC,0.00,0.00,VWS V14.00,2013-01-18 12:19:00,
2013-01-18 07:24:00,52.9,47.2,30.15,NNE,22,9.0,10.0,81,0.00,,SKC,0.00,7.00,VWS V14.00,2013-01-18 12:24:00,
2013-01-18 07:29:00,52.8,47.1,30.15,ENE,62,3.0,10.0,81,0.00,,SKC,0.00,25.00,VWS V14.00,2013-01-18 12:29:00,
2013-01-18 07:34:00,52.7,47.0,30.15,NNE,30,11.0,11.0,81,0.00,,SKC,0.00,12.00,VWS V14.00,2013-01-18 12:34:00,
2013-01-18 07:39:00,52.7,47.0,30.16,NNE,24,9.0,12.0,81,0.00,,SKC,0.00,9.00,VWS V14.00,2013-01-18 12:39:00,
2013-01-18 07:44:00,52.5,46.8,30.16,NNE,30,2.0,6.0,81,0.00,,SKC,0.00,11.00,VWS V14.00,2013-01-18 12:44:00,
2013-01-18 07:49:00,52.4,46.8,30.16,NNE,17,5.0,13.0,81,0.00,,SKC,0.00,35.00,VWS V14.00,2013-01-18 12:49:00,
2013-01-18 07:54:00,52.4,46.8,30.15,North,5,3.0,5.0,81,0.00,,SKC,0.00,23.00,VWS V14.00,2013-01-18 12:54:00,
2013-01-18 07:59:00,52.6,46.9,30.16,North,5,7.0,9.0,81,0.00,,SKC,0.00,26.00,VWS V14.00,2013-01-18 12:59:00,
2013-01-18 08:05:00,52.8,47.1,30.16,North,350,1.0,4.0,81,0.00,,SKC,0.00,58.00,VWS V14.00,2013-01-18 13:05:00,
2013-01-18 08:10:00,53.1,47.4,30.16,North,360,4.0,9.0,81,0.00,,SKC,0.00,32.00,VWS V14.00,2013-01-18 13:10:00,
2013-01-18 08:15:00,53.3,47.6,30.17,North,9,5.0,6.0,81,0.00,,SKC,0.00,33.00,VWS V14.00,2013-01-18 13:15:00,
2013-01-18 08:20:00,53.4,47.4,30.17,North,11,10.0,12.0,80,0.00,,SKC,0.00,35.00,VWS V14.00,2013-01-18 13:20:00,
2013-01-18 08:25:00,53.6,47.9,30.17,North,5,11.0,11.0,81,0.00,,SKC,0.00,44.00,VWS V14.00,2013-01-18 13:25:00,
2013-01-18 08:30:00,53.5,47.2,30.17,North,5,11.0,15.0,79,0.00,,SKC,0.00,40.00,VWS V14.00,2013-01-18 13:30:00,
2013-01-18 08:35:00,53.4,47.1,30.17,North,355,5.0,10.0,79,0.00,,SKC,0.00,44.00,VWS V14.00,2013-01-18 13:35:00,
2013-01-18 08:40:00,53.4,47.1,30.17,North,11,5.0,10.0,79,0.00,,SKC,0.00,46.00,VWS V14.00,2013-01-18 13:40:00,
2013-01-18 08:45:00,53.5,47.2,30.17,NNE,19,2.0,10.0,79,0.00,,SKC,0.00,53.00,VWS V14.00,2013-01-18 13:45:00,
2013-01-18 08:50:00,53.6,47.3,30.18,North,360,7.0,15.0,79,0.00,,SKC,0.00,56.00,VWS V14.00,2013-01-18 13:50:00,
2013-01-18 08:55:00,53.7,47.3,30.18,North,350,10.0,11.0,79,0.00,,BKN025,0.00,56.00,VWS V14.00,2013-01-18 13:55:00,
2013-01-18 09:00:00,53.8,47.8,30.18,NNW,343,6.0,10.0,80,0.00,,BKN025,0.00,63.00,VWS V14.00,2013-01-18 14:00:00,
2013-01-18 09:05:00,53.8,47.5,30.18,North,360,5.0,9.0,79,0.00,,BKN025,0.00,95.00,VWS V14.00,2013-01-18 14:05:00,
2013-01-18 09:10:00,53.9,47.5,30.18,NNE,18,10.0,13.0,79,0.00,,BKN025,0.00,88.00,VWS V14.00,2013-01-18 14:10:00,
2013-01-18 09:15:00,54.0,47.6,30.19,NNW,335,0.0,11.0,79,0.00,,BKN025,0.00,137.00,VWS V14.00,2013-01-18 14:15:00,
2013-01-18 09:20:00,54.4,48.0,30.18,NNE,13,4.0,8.0,79,0.00,,BKN025,0.00,146.00,VWS V14.00,2013-01-18 14:20:00,
2013-01-18 09:25:00,54.8,48.1,30.19,NNW,348,6.0,12.0,78,0.00,,BKN025,0.00,83.00,VWS V14.00,2013-01-18 14:25:00,
2013-01-18 09:30:00,54.7,47.6,30.19,North,9,8.0,11.0,77,0.00,,BKN025,0.00,84.00,VWS V14.00,2013-01-18 14:30:00,
2013-01-18 09:35:00,54.8,48.1,30.19,North,5,9.0,14.0,78,0.00,,CLR,0.00,105.00,VWS V14.00,2013-01-18 14:35:00,
2013-01-18 09:40:00,54.9,48.2,30.19,North,5,3.0,7.0,78,0.00,,CLR,0.00,97.00,VWS V14.00,2013-01-18 14:40:00,
2013-01-18 09:45:00,55.1,48.7,30.18,NW,325,10.0,10.0,79,0.00,,CLR,0.00,72.00,VWS V14.00,2013-01-18 14:45:00,
2013-01-18 09:50:00,55.1,48.4,30.19,NNW,348,6.0,6.0,78,0.00,,CLR,0.00,91.00,VWS V14.00,2013-01-18 14:50:00,
2013-01-18 09:55:00,55.3,48.6,30.19,North,355,5.0,9.0,78,0.00,,CLR,0.00,83.00,VWS V14.00,2013-01-18 14:55:00,
2013-01-18 10:00:00,55.3,48.6,30.19,NNE,23,11.0,13.0,78,0.00,,CLR,0.00,91.00,VWS V14.00,2013-01-18 15:00:00,
2013-01-18 10:05:00,55.3,48.6,30.19,North,5,6.0,10.0,78,0.00,,CLR,0.00,91.00,VWS V14.00,2013-01-18 15:05:00,
2013-01-18 10:10:00,55.5,48.8,30.19,North,5,2.0,5.0,78,0.00,,CLR,0.00,93.00,VWS V14.00,2013-01-18 15:10:00,
2013-01-18 10:15:00,55.8,49.0,30.19,NE,46,5.0,10.0,78,0.00,,CLR,0.00,95.00,VWS V14.00,2013-01-18 15:15:00,
2013-01-18 10:20:00,56.2,49.1,30.19,NNE,27,4.0,9.0,77,0.00,,CLR,0.00,95.00,VWS V14.00,2013-01-18 15:20:00,
2013-01-18 10:25:00,56.5,49.4,30.19,NNE,33,4.0,10.0,77,0.00,,CLR,0.00,97.00,VWS V14.00,2013-01-18 15:25:00,
2013-01-18 10:30:00,56.8,49.3,30.19,NNW,346,7.0,7.0,76,0.00,,CLR,0.00,98.00,VWS V14.00,2013-01-18 15:30:00,
2013-01-18 10:35:00,56.9,49.4,30.19,North,355,4.0,6.0,76,0.00,,CLR,0.00,98.00,VWS V14.00,2013-01-18 15:35:00,
2013-01-18 10:40:00,57.1,48.9,30.19,NNE,19,5.0,9.0,74,0.00,,CLR,0.00,100.00,VWS V14.00,2013-01-18 15:40:00,
2013-01-18 10:45:00,57.1,49.6,30.19,North,10,5.0,8.0,76,0.00,,CLR,0.00,102.00,VWS V14.00,2013-01-18 15:45:00,
2013-01-18 10:50:00,57.2,49.0,30.19,NNE,15,7.0,11.0,74,0.00,,CLR,0.00,104.00,VWS V14.00,2013-01-18 15:50:00,
2013-01-18 10:55:00,57.1,48.9,30.19,NNE,33,4.0,9.0,74,0.00,,CLR,0.00,104.00,VWS V14.00,2013-01-18 15:55:00,
2013-01-18 11:01:00,57.3,49.1,30.19,NNW,343,2.0,8.0,74,0.00,,CLR,0.00,105.00,VWS V14.00,2013-01-18 16:01:00,
2013-01-18 11:06:00,57.5,49.3,30.19,North,5,5.0,9.0,74,0.00,,CLR,0.00,107.00,VWS V14.00,2013-01-18 16:06:00,
2013-01-18 11:11:00,58.0,49.8,30.18,North,9,4.0,4.0,74,0.00,,CLR,0.00,109.00,VWS V14.00,2013-01-18 16:11:00,
2013-01-18 11:16:00,58.2,50.0,30.18,North,9,3.0,11.0,74,0.00,,CLR,0.00,109.00,VWS V14.00,2013-01-18 16:16:00,
2013-01-18 11:21:00,58.1,49.9,30.18,North,360,1.0,4.0,74,0.00,,CLR,0.00,111.00,VWS V14.00,2013-01-18 16:21:00,
2013-01-18 11:26:00,58.4,50.2,30.18,NNW,343,6.0,6.0,74,0.00,,CLR,0.00,111.00,VWS V14.00,2013-01-18 16:26:00,
2013-01-18 11:31:00,58.8,50.2,30.18,North,360,3.0,6.0,73,0.00,,CLR,0.00,114.00,VWS V14.00,2013-01-18 16:31:00,
2013-01-18 11:36:00,58.8,50.5,30.17,North,360,5.0,8.0,74,0.00,,CLR,0.00,116.00,VWS V14.00,2013-01-18 16:36:00,
2013-01-18 11:41:00,59.2,51.3,30.17,North,5,8.0,8.0,75,0.00,,CLR,0.00,118.00,VWS V14.00,2013-01-18 16:41:00,
2013-01-18 11:46:00,59.6,51.0,30.17,NE,36,5.0,6.0,73,0.00,,CLR,0.00,118.00,VWS V14.00,2013-01-18 16:46:00,
2013-01-18 11:51:00,59.7,51.0,30.17,North,11,5.0,7.0,73,0.00,,CLR,0.00,120.00,VWS V14.00,2013-01-18 16:51:00,
2013-01-18 11:56:00,59.8,51.1,30.17,North,5,5.0,6.0,73,0.00,,CLR,0.00,121.00,VWS V14.00,2013-01-18 16:56:00,
2013-01-18 12:01:00,60.0,51.3,30.16,NNE,17,3.0,5.0,73,0.00,,CLR,0.00,123.00,VWS V14.00,2013-01-18 17:01:00,
2013-01-18 12:06:00,60.3,51.6,30.16,North,360,1.0,5.0,73,0.00,,CLR,0.00,123.00,VWS V14.00,2013-01-18 17:06:00,
2013-01-18 12:11:00,60.8,52.1,30.15,North,5,3.0,6.0,73,0.00,,CLR,0.00,123.00,VWS V14.00,2013-01-18 17:11:00,
2013-01-18 12:16:00,61.1,52.0,30.15,North,5,1.0,5.0,72,0.00,,CLR,0.00,125.00,VWS V14.00,2013-01-18 17:16:00,
2013-01-18 12:21:00,61.1,52.0,30.15,North,9,5.0,7.0,72,0.00,,CLR,0.00,125.00,VWS V14.00,2013-01-18 17:21:00,
2013-01-18 12:26:00,61.3,52.6,30.15,North,10,5.0,6.0,73,0.00,,CLR,0.00,125.00,VWS V14.00,2013-01-18 17:26:00,
2013-01-18 12:31:00,62.1,53.0,30.14,NNE,13,6.0,8.0,72,0.00,,CLR,0.00,125.00,VWS V14.00,2013-01-18 17:31:00,
2013-01-18 12:36:00,62.5,53.4,30.14,NNE,16,4.0,7.0,72,0.00,,SKC,0.00,125.00,VWS V14.00,2013-01-18 17:36:00,
2013-01-18 12:41:00,62.5,53.0,30.14,ENE,61,5.0,6.0,71,0.00,,SKC,0.00,123.00,VWS V14.00,2013-01-18 17:41:00,
2013-01-18 12:46:00,62.7,53.2,30.14,NNE,22,5.0,10.0,71,0.00,,SKC,0.00,123.00,VWS V14.00,2013-01-18 17:46:00,
2013-01-18 12:51:00,62.8,53.3,30.14,NE,53,2.0,5.0,71,0.00,,SKC,0.00,97.00,VWS V14.00,2013-01-18 17:51:00,
2013-01-18 12:56:00,62.9,53.4,30.13,ENE,65,5.0,10.0,71,0.00,,SKC,0.00,123.00,VWS V14.00,2013-01-18 17:56:00,
2013-01-18 13:01:00,63.4,53.5,30.13,NE,40,5.0,7.0,70,0.00,,SKC,0.00,121.00,VWS V14.00,2013-01-18 18:01:00,
2013-01-18 13:06:00,63.6,53.7,30.12,NNE,22,5.0,9.0,70,0.00,,SKC,0.00,123.00,VWS V14.00,2013-01-18 18:06:00,
2013-01-18 13:11:00,63.7,53.7,30.12,NNE,30,3.0,6.0,70,0.00,,SKC,0.00,120.00,VWS V14.00,2013-01-18 18:11:00,
2013-01-18 13:16:00,64.2,53.8,30.12,NNE,19,6.0,14.0,69,0.00,,SKC,0.00,120.00,VWS V14.00,2013-01-18 18:16:00,
2013-01-18 13:21:00,64.3,54.3,30.12,North,9,6.0,6.0,70,0.00,,SKC,0.00,121.00,VWS V14.00,2013-01-18 18:21:00,
2013-01-18 13:26:00,64.6,54.2,30.12,NNE,29,8.0,10.0,69,0.00,,SKC,0.00,121.00,VWS V14.00,2013-01-18 18:26:00,
2013-01-18 13:31:00,64.9,54.9,30.12,ENE,57,3.0,5.0,70,0.00,,SKC,0.00,120.00,VWS V14.00,2013-01-18 18:31:00,
2013-01-18 13:36:00,65.4,55.4,30.11,ENE,78,10.0,10.0,70,0.00,,SKC,0.00,120.00,VWS V14.00,2013-01-18 18:36:00,
2013-01-18 13:41:00,66.0,55.2,30.11,ENE,59,4.0,12.0,68,0.00,,SKC,0.00,120.00,VWS V14.00,2013-01-18 18:41:00,
2013-01-18 13:46:00,66.3,55.8,30.11,NNE,15,7.0,11.0,69,0.00,,SKC,0.00,65.00,VWS V14.00,2013-01-18 18:46:00,
2013-01-18 13:51:00,66.6,55.7,30.11,NE,41,3.0,4.0,68,0.00,,SKC,0.00,123.00,VWS V14.00,2013-01-18 18:51:00,
2013-01-18 13:56:00,67.1,56.2,30.11,ENE,63,5.0,9.0,68,0.00,,SKC,0.00,116.00,VWS V14.00,2013-01-18 18:56:00,
2013-01-18 14:01:00,67.2,56.7,30.10,NE,55,8.0,8.0,69,0.00,,SKC,0.00,132.00,VWS V14.00,2013-01-18 19:01:00,
2013-01-18 14:06:00,67.4,56.5,30.10,ENE,62,9.0,15.0,68,0.00,,SKC,0.00,84.00,VWS V14.00,2013-01-18 19:06:00,
2013-01-18 14:11:00,67.6,57.1,30.10,ENE,65,11.0,11.0,69,0.00,,SKC,0.00,135.00,VWS V14.00,2013-01-18 19:11:00,
2013-01-18 14:16:00,67.8,56.9,30.10,ESE,105,10.0,10.0,68,0.00,,SKC,0.00,65.00,VWS V14.00,2013-01-18 19:16:00,
2013-01-18 14:21:00,67.9,57.4,30.10,NE,34,2.0,6.0,69,0.00,,SKC,0.00,69.00,VWS V14.00,2013-01-18 19:21:00,
2013-01-18 14:26:00,68.1,57.6,30.10,NE,43,6.0,6.0,69,0.00,,SKC,0.00,74.00,VWS V14.00,2013-01-18 19:26:00,
2013-01-18 14:31:00,68.3,57.3,30.10,NE,54,2.0,9.0,68,0.00,,CLR,0.00,77.00,VWS V14.00,2013-01-18 19:31:00,
2013-01-18 14:37:00,68.3,57.8,30.10,ENE,77,4.0,11.0,69,0.00,,CLR,0.00,77.00,VWS V14.00,2013-01-18 19:37:00,
2013-01-18 14:42:00,68.6,58.0,30.10,NE,55,6.0,13.0,69,0.00,,CLR,0.00,100.00,VWS V14.00,2013-01-18 19:42:00,
2013-01-18 14:47:00,68.9,58.7,30.10,NE,50,8.0,10.0,70,0.00,,CLR,0.00,95.00,VWS V14.00,2013-01-18 19:47:00,
2013-01-18 14:52:00,69.3,59.1,30.10,ENE,69,10.0,13.0,70,0.00,,CLR,0.00,79.00,VWS V14.00,2013-01-18 19:52:00,
2013-01-18 14:57:00,69.2,59.0,30.10,East,80,7.0,11.0,70,0.00,,CLR,0.00,104.00,VWS V14.00,2013-01-18 19:57:00,
2013-01-18 15:02:00,69.4,58.8,30.10,East,84,10.0,14.0,69,0.00,,CLR,0.00,62.00,VWS V14.00,2013-01-18 20:02:00,
2013-01-18 15:07:00,69.3,59.1,30.10,ESE,113,10.0,10.0,70,0.00,,CLR,0.00,47.00,VWS V14.00,2013-01-18 20:07:00,
2013-01-18 15:12:00,69.2,59.0,30.10,East,81,6.0,8.0,70,0.00,,CLR,0.00,56.00,VWS V14.00,2013-01-18 20:12:00,
2013-01-18 15:17:00,69.0,58.4,30.10,ENE,70,9.0,11.0,69,0.00,,CLR,0.00,56.00,VWS V14.00,2013-01-18 20:17:00,
2013-01-18 15:22:00,69.0,58.4,30.10,ESE,119,12.0,12.0,69,0.00,,CLR,0.00,77.00,VWS V14.00,2013-01-18 20:22:00,
2013-01-18 15:27:00,69.3,58.3,30.10,East,95,4.0,13.0,68,0.00,,CLR,0.00,69.00,VWS V14.00,2013-01-18 20:27:00,
2013-01-18 15:32:00,69.6,58.6,30.10,ENE,73,5.0,12.0,68,0.00,,CLR,0.00,62.00,VWS V14.00,2013-01-18 20:32:00,
2013-01-18 15:37:00,69.6,58.2,30.10,ESE,105,10.0,14.0,67,0.00,,CLR,0.00,58.00,VWS V14.00,2013-01-18 20:37:00,
2013-01-18 15:42:00,69.4,58.8,30.10,ESE,102,10.0,13.0,69,0.00,,CLR,0.00,60.00,VWS V14.00,2013-01-18 20:42:00,
2013-01-18 15:47:00,69.4,58.8,30.10,East,86,6.0,12.0,69,0.00,,CLR,0.00,51.00,VWS V14.00,2013-01-18 20:47:00,
2013-01-18 15:52:00,69.2,59.0,30.10,East,81,5.0,10.0,70,0.00,,CLR,0.00,47.00,VWS V14.00,2013-01-18 20:52:00,
2013-01-18 15:57:00,69.2,59.8,30.11,East,101,6.0,7.0,72,0.00,,CLR,0.00,84.00,VWS V14.00,2013-01-18 20:57:00,
2013-01-18 16:02:00,69.3,59.5,30.10,East,83,6.0,14.0,71,0.00,,CLR,0.00,70.00,VWS V14.00,2013-01-18 21:02:00,
2013-01-18 16:07:00,69.3,59.5,30.11,East,84,6.0,13.0,71,0.00,,CLR,0.00,70.00,VWS V14.00,2013-01-18 21:07:00,
2013-01-18 16:12:00,69.5,59.7,30.10,ENE,71,13.0,14.0,71,0.00,,CLR,0.00,81.00,VWS V14.00,2013-01-18 21:12:00,
2013-01-18 16:17:00,69.5,59.7,30.10,NE,49,4.0,14.0,71,0.00,,CLR,0.00,40.00,VWS V14.00,2013-01-18 21:17:00,
2013-01-18 16:22:00,69.5,59.7,30.11,East,80,13.0,13.0,71,0.00,,CLR,0.00,56.00,VWS V14.00,2013-01-18 21:22:00,
2013-01-18 16:27:00,69.6,59.8,30.11,ENE,72,10.0,12.0,71,0.00,,CLR,0.00,44.00,VWS V14.00,2013-01-18 21:27:00,
2013-01-18 16:32:00,69.6,59.8,30.11,ENE,66,9.0,10.0,71,0.00,,SCT050,0.00,39.00,VWS V14.00,2013-01-18 21:32:00,
2013-01-18 16:37:00,69.5,60.1,30.11,ENE,70,8.0,10.0,72,0.00,,SCT050,0.00,37.00,VWS V14.00,2013-01-18 21:37:00,
2013-01-18 16:42:00,69.5,60.1,30.11,East,96,10.0,11.0,72,0.00,,SCT050,0.00,32.00,VWS V14.00,2013-01-18 21:42:00,
2013-01-18 16:47:00,69.4,60.4,30.11,ENE,72,6.0,9.0,73,0.00,,SCT050,0.00,30.00,VWS V14.00,2013-01-18 21:47:00,
2013-01-18 16:52:00,69.5,60.5,30.11,ENE,72,9.0,9.0,73,0.00,,SCT050,0.00,23.00,VWS V14.00,2013-01-18 21:52:00,
2013-01-18 16:57:00,69.5,60.1,30.11,East,88,5.0,11.0,72,0.00,,SCT050,0.00,21.00,VWS V14.00,2013-01-18 21:57:00,
2013-01-18 17:02:00,69.5,60.5,30.12,East,96,9.0,10.0,73,0.00,,SCT050,0.00,18.00,VWS V14.00,2013-01-18 22:02:00,
2013-01-18 17:07:00,69.5,60.1,30.12,East,86,5.0,9.0,72,0.00,,SCT050,0.00,16.00,VWS V14.00,2013-01-18 22:07:00,
2013-01-18 17:12:00,69.6,60.2,30.12,East,97,4.0,5.0,72,0.00,,SCT050,0.00,11.00,VWS V14.00,2013-01-18 22:12:00,
2013-01-18 17:17:00,69.7,60.3,30.12,ENE,74,5.0,6.0,72,0.00,,SCT050,0.00,5.00,VWS V14.00,2013-01-18 22:17:00,
2013-01-18 17:22:00,69.7,59.9,30.12,East,82,6.0,6.0,71,0.00,,SCT050,0.00,5.00,VWS V14.00,2013-01-18 22:22:00,
2013-01-18 17:27:00,69.8,60.0,30.12,East,90,5.0,9.0,71,0.00,,SCT050,0.00,0.00,VWS V14.00,2013-01-18 22:27:00,
2013-01-18 17:32:00,69.9,59.7,30.12,ESE,106,3.0,5.0,70,0.00,,SCT050,0.00,0.00,VWS V14.00,2013-01-18 22:32:00,
2013-01-18 17:37:00,69.9,59.3,30.13,ESE,106,3.0,4.0,69,0.00,,SCT050,0.00,0.00,VWS V14.00,2013-01-18 22:37:00,
2013-01-18 17:42:00,70.0,59.4,30.12,ENE,75,5.0,11.0,69,0.00,,SCT050,0.00,0.00,VWS V14.00,2013-01-18 22:42:00,
2013-01-18 17:47:00,70.0,59.0,30.12,East,97,6.0,7.0,68,0.00,,SCT050,0.00,0.00,VWS V14.00,2013-01-18 22:47:00,
2013-01-18 17:53:00,70.1,58.7,30.12,ESE,103,4.0,8.0,67,0.00,,SCT050,0.00,0.00,VWS V14.00,2013-01-18 22:53:00,
2013-01-18 17:58:00,70.1,58.7,30.13,East,97,11.0,11.0,67,0.00,,SCT050,0.00,0.00,VWS V14.00,2013-01-18 22:58:00,
2013-01-18 18:03:00,70.1,58.7,30.13,ENE,71,3.0,5.0,67,0.00,,SCT050,0.00,0.00,VWS V14.00,2013-01-18 23:03:00,
2013-01-18 18:08:00,70.1,58.7,30.13,East,84,10.0,11.0,67,0.00,,SCT050,0.00,0.00,VWS V14.00,2013-01-18 23:08:00,
2013-01-18 18:13:00,70.1,58.7,30.13,ENE,75,5.0,6.0,67,0.00,,SCT050,0.00,0.00,VWS V14.00,2013-01-18 23:13:00,
2013-01-18 18:18:00,70.0,58.5,30.13,East,80,6.0,6.0,67,0.00,,SCT050,0.00,0.00,VWS V14.00,2013-01-18 23:18:00,
2013-01-18 18:23:00,70.0,58.5,30.13,East,83,5.0,11.0,67,0.00,,SCT050,0.00,0.00,VWS V14.00,2013-01-18 23:23:00,
2013-01-18 18:28:00,70.0,58.5,30.13,East,84,4.0,7.0,67,0.00,,SCT050,0.00,0.00,VWS V14.00,2013-01-18 23:28:00,
2013-01-18 18:33:00,70.0,57.7,30.13,ENE,60,4.0,10.0,65,0.00,,SCT055,0.00,0.00,VWS V14.00,2013-01-18 23:33:00,
2013-01-18 18:38:00,69.9,57.6,30.13,ENE,70,6.0,9.0,65,0.00,,SCT055,0.00,0.00,VWS V14.00,2013-01-18 23:38:00,
2013-01-18 18:43:00,69.9,57.6,30.13,ENE,70,5.0,6.0,65,0.00,,SCT055,0.00,0.00,VWS V14.00,2013-01-18 23:43:00,
2013-01-18 18:48:00,69.9,57.6,30.13,ENE,71,3.0,5.0,65,0.00,,SCT055,0.00,0.00,VWS V14.00,2013-01-18 23:48:00,
2013-01-18 18:53:00,69.8,57.5,30.14,ENE,75,4.0,6.0,65,0.00,,SCT055,0.00,0.00,VWS V14.00,2013-01-18 23:53:00,
2013-01-18 18:58:00,69.8,57.5,30.14,ENE,76,3.0,4.0,65,0.00,,SCT055,0.00,0.00,VWS V14.00,2013-01-18 23:58:00,
2013-01-18 19:03:00,69.8,57.5,30.14,East,82,0.0,7.0,65,0.00,,SCT055,0.00,0.00,VWS V14.00,2013-01-19 00:03:00,
2013-01-18 19:08:00,69.8,57.5,30.14,East,82,3.0,5.0,65,0.00,,BKN055,0.00,0.00,VWS V14.00,2013-01-19 00:08:00,
2013-01-18 19:13:00,69.9,57.6,30.14,East,90,4.0,8.0,65,0.00,,BKN055,0.00,0.00,VWS V14.00,2013-01-19 00:13:00,
2013-01-18 19:18:00,69.9,57.6,30.14,East,98,4.0,8.0,65,0.00,,BKN055,0.00,0.00,VWS V14.00,2013-01-19 00:18:00,
2013-01-18 19:23:00,69.9,58.0,30.14,East,101,1.0,4.0,66,0.00,,BKN055,0.00,0.00,VWS V14.00,2013-01-19 00:23:00,
2013-01-18 19:28:00,69.9,57.6,30.14,East,101,5.0,6.0,65,0.00,,BKN055,0.00,0.00,VWS V14.00,2013-01-19 00:28:00,
2013-01-18 19:33:00,70.0,57.7,30.14,East,98,5.0,7.0,65,0.00,,BKN055,0.00,0.00,VWS V14.00,2013-01-19 00:33:00,
2013-01-18 19:38:00,70.0,58.1,30.14,East,98,4.0,6.0,66,0.00,,BKN055,0.00,0.00,VWS V14.00,2013-01-19 00:38:00,
2013-01-18 19:43:00,70.0,57.3,30.14,East,87,7.0,9.0,64,0.00,,BKN055,0.00,0.00,VWS V14.00,2013-01-19 00:43:00,
2013-01-18 19:48:00,70.1,57.4,30.15,East,92,3.0,5.0,64,0.00,,BKN055,0.00,0.00,VWS V14.00,2013-01-19 00:48:00,
2013-01-18 19:53:00,70.1,57.8,30.14,East,94,3.0,4.0,65,0.00,,BKN055,0.00,0.00,VWS V14.00,2013-01-19 00:53:00,
2013-01-18 19:58:00,70.0,57.7,30.14,ESE,103,4.0,9.0,65,0.00,,BKN055,0.00,0.00,VWS V14.00,2013-01-19 00:58:00,
2013-01-18 20:03:00,70.0,57.7,30.14,ESE,103,2.0,3.0,65,0.00,,BKN055,0.00,0.00,VWS V14.00,2013-01-19 01:03:00,
2013-01-18 20:08:00,70.0,57.7,30.15,ESE,103,5.0,5.0,65,0.00,,BKN055,0.00,0.00,VWS V14.00,2013-01-19 01:08:00,
2013-01-18 20:13:00,70.0,57.7,30.15,East,98,3.0,6.0,65,0.00,,BKN055,0.00,0.00,VWS V14.00,2013-01-19 01:13:00,
2013-01-18 20:18:00,70.0,57.7,30.15,ESE,102,3.0,5.0,65,0.00,,BKN055,0.00,0.00,VWS V14.00,2013-01-19 01:18:00,
2013-01-18 20:23:00,70.0,57.7,30.15,East,94,9.0,12.0,65,0.00,,BKN055,0.00,0.00,VWS V14.00,2013-01-19 01:23:00,
2013-01-18 20:28:00,70.0,57.7,30.15,East,94,9.0,10.0,65,0.00,,BKN055,0.00,0.00,VWS V14.00,2013-01-19 01:28:00,
2013-01-18 20:33:00,69.9,58.0,30.15,East,94,5.0,7.0,66,0.00,,BKN055,0.00,0.00,VWS V14.00,2013-01-19 01:33:00,
2013-01-18 20:38:00,69.8,57.9,30.15,ESE,103,9.0,12.0,66,0.00,,BKN055,0.00,0.00,VWS V14.00,2013-01-19 01:38:00,
2013-01-18 20:43:00,69.8,58.4,30.15,ESE,104,3.0,6.0,67,0.00,,BKN055,0.00,0.00,VWS V14.00,2013-01-19 01:43:00,
2013-01-18 20:48:00,69.7,58.3,30.15,ESE,104,3.0,8.0,67,0.00,,BKN055,0.00,0.00,VWS V14.00,2013-01-19 01:48:00,
2013-01-18 20:53:00,69.7,58.3,30.15,ESE,107,5.0,9.0,67,0.00,,BKN055,0.00,0.00,VWS V14.00,2013-01-19 01:53:00,
2013-01-18 20:58:00,69.7,58.3,30.15,ESE,107,4.0,6.0,67,0.00,,BKN055,0.00,0.00,VWS V14.00,2013-01-19 01:58:00,
2013-01-18 21:03:00,69.6,58.2,30.15,ESE,105,7.0,11.0,67,0.00,,BKN055,0.00,0.00,VWS V14.00,2013-01-19 02:03:00,
2013-01-18 21:08:00,69.6,58.2,30.15,ESE,105,5.0,6.0,67,0.00,,BKN055,0.00,0.00,VWS V14.00,2013-01-19 02:08:00,
2013-01-18 21:14:00,69.7,58.7,30.15,ESE,104,5.0,6.0,68,0.00,,BKN055,0.00,0.00,VWS V14.00,2013-01-19 02:14:00,
2013-01-18 21:19:00,69.7,58.7,30.15,ESE,116,2.0,6.0,68,0.00,,BKN055,0.00,0.00,VWS V14.00,2013-01-19 02:19:00,
2013-01-18 21:24:00,69.8,58.8,30.15,ESE,115,3.0,6.0,68,0.00,,BKN055,0.00,0.00,VWS V14.00,2013-01-19 02:24:00,
2013-01-18 21:29:00,69.7,58.7,30.15,ESE,115,4.0,4.0,68,0.00,,BKN055,0.00,0.00,VWS V14.00,2013-01-19 02:29:00,
2013-01-18 21:34:00,69.8,58.8,30.15,ESE,114,3.0,5.0,68,0.00,,SCT040,0.00,0.00,VWS V14.00,2013-01-19 02:34:00,
2013-01-18 21:39:00,69.8,58.4,30.15,ESE,104,4.0,6.0,67,0.00,,SCT040,0.00,0.00,VWS V14.00,2013-01-19 02:39:00,
2013-01-18 21:44:00,69.8,58.4,30.15,East,101,7.0,11.0,67,0.00,,SCT040,0.00,0.00,VWS V14.00,2013-01-19 02:44:00,
2013-01-18 21:49:00,69.9,58.9,30.15,East,100,2.0,5.0,68,0.00,,SCT040,0.00,0.00,VWS V14.00,2013-01-19 02:49:00,
2013-01-18 21:54:00,69.8,58.8,30.15,East,100,0.0,3.0,68,0.00,,SCT040,0.00,0.00,VWS V14.00,2013-01-19 02:54:00,
2013-01-18 21:59:00,69.8,58.8,30.15,ESE,103,4.0,4.0,68,0.00,,SCT040,0.00,0.00,VWS V14.00,2013-01-19 02:59:00,
2013-01-18 22:04:00,69.8,58.8,30.15,ESE,103,4.0,7.0,68,0.00,,SCT040,0.00,0.00,VWS V14.00,2013-01-19 03:04:00,
2013-01-18 22:09:00,69.8,58.8,30.15,ESE,103,2.0,7.0,68,0.00,,SCT040,0.00,0.00,VWS V14.00,2013-01-19 03:09:00,
2013-01-18 22:14:00,69.9,58.9,30.15,ESE,104,3.0,4.0,68,0.00,,SCT040,0.00,0.00,VWS V14.00,2013-01-19 03:14:00,
2013-01-18 22:19:00,69.9,58.9,30.14,ESE,102,4.0,6.0,68,0.00,,SCT040,0.00,0.00,VWS V14.00,2013-01-19 03:19:00,
2013-01-18 22:24:00,69.9,58.5,30.15,ESE,107,2.0,11.0,67,0.00,,SCT040,0.00,0.00,VWS V14.00,2013-01-19 03:24:00,
2013-01-18 22:29:00,69.9,58.5,30.15,ESE,104,5.0,6.0,67,0.00,,SCT040,0.00,0.00,VWS V14.00,2013-01-19 03:29:00,
2013-01-18 22:34:00,70.1,57.8,30.14,East,99,4.0,5.0,65,0.00,,SCT040,0.00,0.00,VWS V14.00,2013-01-19 03:34:00,
2013-01-18 22:39:00,70.1,57.8,30.14,East,99,4.0,6.0,65,0.00,,SCT040,0.00,0.00,VWS V14.00,2013-01-19 03:39:00,
2013-01-18 22:44:00,70.1,57.8,30.14,East,101,4.0,5.0,65,0.00,,SCT040,0.00,0.00,VWS V14.00,2013-01-19 03:44:00,
2013-01-18 22:49:00,70.1,58.2,30.14,East,101,3.0,3.0,66,0.00,,SCT040,0.00,0.00,VWS V14.00,2013-01-19 03:49:00,
2013-01-18 22:54:00,69.9,58.0,30.14,East,101,4.0,6.0,66,0.00,,SCT040,0.00,0.00,VWS V14.00,2013-01-19 03:54:00,
2013-01-18 22:59:00,69.9,58.0,30.14,East,99,4.0,6.0,66,0.00,,SCT040,0.00,0.00,VWS V14.00,2013-01-19 03:59:00,
2013-01-18 23:04:00,69.9,58.0,30.14,East,99,5.0,6.0,66,0.00,,SCT040,0.00,0.00,VWS V14.00,2013-01-19 04:04:00,
2013-01-18 23:09:00,69.9,58.0,30.14,East,100,3.0,6.0,66,0.00,,SCT040,0.00,0.00,VWS V14.00,2013-01-19 04:09:00,
2013-01-18 23:14:00,69.9,58.0,30.14,ESE,102,3.0,6.0,66,0.00,,SCT040,0.00,0.00,VWS V14.00,2013-01-19 04:14:00,
2013-01-18 23:19:00,69.9,58.5,30.14,ESE,102,4.0,4.0,67,0.00,,SCT040,0.00,0.00,VWS V14.00,2013-01-19 04:19:00,
2013-01-18 23:24:00,69.9,58.5,30.13,East,101,6.0,7.0,67,0.00,,SCT040,0.00,0.00,VWS V14.00,2013-01-19 04:24:00,
2013-01-18 23:29:00,69.9,58.9,30.13,ESE,102,1.0,3.0,68,0.00,,SCT040,0.00,0.00,VWS V14.00,2013-01-19 04:29:00,
2013-01-18 23:34:00,69.9,58.5,30.13,ESE,104,3.0,4.0,67,0.00,,SCT040,0.00,0.00,VWS V14.00,2013-01-19 04:34:00,
2013-01-18 23:39:00,69.8,58.4,30.13,ESE,107,3.0,5.0,67,0.00,,SCT040,0.00,0.00,VWS V14.00,2013-01-19 04:39:00,
2013-01-18 23:45:00,69.8,58.8,30.13,ESE,107,3.0,3.0,68,0.00,,SCT040,0.00,0.00,VWS V14.00,2013-01-19 04:45:00,
2013-01-18 23:50:00,69.8,58.8,30.13,ESE,107,1.0,4.0,68,0.00,,SCT040,0.00,0.00,VWS V14.00,2013-01-19 04:50:00,
2013-01-18 23:55:00,69.8,58.8,30.13,ESE,108,0.0,1.0,68,0.00,,SCT040,0.00,0.00,VWS V14.00,2013-01-19 04:55:00,